Flag for Indonesia Weather past 2 weeks in Makassar, South Sulawesi, Indonesia

70 °F

Passing clouds.

Feels Like: 70 °F
Forecast: 70 / 91 °F
Wind: 5 mph from South

Location: Ujung Pandang / Hasanuddin

Current Time: Oct 9, 2015 at 7:08:44 AM

Latest Report: Oct 9, 2015 at 6:30 AM

Visibility: N/A

Pressure: 29.92 "Hg

Humidity: 73%

Dew point: 61 °F

Location of MakassarLocation

Historic Weather in Makassar — Graph


Makassar temperature yesterday

Maximum temperature yesterday: 97 °F (at 11:30 AM)
Minimum temperature yesterday: 70 °F (at 3:30 AM)
Average temperature yesterday: 83 °F

Past Weeks' High & Low Weather Summary

High99 °F (Oct 2, 12:00 PM)89% (Sep 30, 12:30 AM)29.98 "Hg (Sep 30, 12:30 AM)
Low66 °F (Sep 24, 6:00 AM)21% (Oct 2, 1:30 PM)29.71 "Hg (Sep 27, 4:00 PM)
Average84 °F54%29.86 "Hg
* Reported Sep 24 6:00 AM — Oct 9 6:00 AM, Makassar, Weather by CustomWeather, © 2015

Note: Actual official high and low records may vary slightly from our data, if they occured in-between our weather recording intervals... More about our weather records


Makassar weather history for previous 24 hours

Time TempWeatherWind HumidityBarometerVisibility
6:00 AM
Fri, Oct 9
68 °FPassing clouds.3 mph73%29.92 "Hg5 mi
5:30 AM70 °FPassing clouds.2 mph69%29.89 "Hg5 mi
5:00 AM72 °FPassing clouds.3 mph65%29.89 "Hg5 mi
4:30 AM73 °FPassing clouds.1 mph61%29.89 "Hg5 mi
4:00 AM72 °FPassing clouds.2 mph61%29.86 "Hg5 mi
3:30 AM72 °FPassing clouds.6 mph65%29.86 "Hg5 mi
3:00 AM72 °FPassing clouds.5 mph65%29.86 "Hg5 mi
2:00 AM77 °FPassing clouds.5 mph57%29.86 "Hg5 mi
1:00 AM75 °FPassing clouds.2 mph57%29.86 "Hg5 mi
12:30 AM75 °FPassing clouds.3 mph57%29.86 "Hg5 mi
12:00 AM77 °FPassing clouds.2 mph54%29.86 "Hg5 mi
11:30 PM
Thu, Oct 8
79 °FPassing clouds.6 mph51%29.89 "Hg5 mi
11:00 PM79 °FPassing clouds.7 mph51%29.89 "Hg5 mi
10:30 PM77 °FPassing clouds.3 mph54%29.89 "Hg5 mi
10:00 PM77 °FPassing clouds.3 mph54%29.89 "Hg5 mi
9:30 PM81 °FPassing clouds.3 mph48%29.89 "Hg5 mi
9:00 PM81 °FPassing clouds.5 mph45%29.89 "Hg5 mi
8:30 PM82 °FPassing clouds.7 mph45%29.86 "Hg5 mi
8:00 PM82 °FPassing clouds.5 mph45%29.86 "Hg5 mi
7:30 PM82 °FPassing clouds.2 mph62%29.86 "Hg5 mi
7:00 PM84 °FPassing clouds.5 mph58%29.83 "Hg5 mi
6:30 PM86 °FPassing clouds.5 mph59%29.83 "Hg5 mi
6:00 PM88 °FPassing clouds.6 mph52%29.80 "Hg6 mi
5:30 PM88 °FPassing clouds.7 mph52%29.80 "HgN/A
5:00 PM90 °FPassing clouds.6 mph49%29.80 "HgN/A
4:30 PM91 °FPassing clouds.7 mph46%29.77 "HgN/A
4:00 PM91 °FPassing clouds.8 mph44%29.77 "HgN/A
3:30 PM91 °FPassing clouds.8 mph44%29.80 "Hg6 mi
3:00 PM91 °FPassing clouds.12 mph46%29.80 "Hg6 mi
2:30 PM91 °FPassing clouds.12 mph46%29.80 "Hg6 mi
2:00 PM93 °FPassing clouds.9 mph44%29.80 "HgN/A
1:30 PM91 °FPassing clouds.12 mph46%29.83 "HgN/A
1:00 PM91 °FPassing clouds.13 mph46%29.83 "HgN/A
12:00 PM93 °FPassing clouds.10 mph47%29.86 "HgN/A
11:30 AM97 °FPassing clouds.10 mph30%29.89 "HgN/A
11:00 AM95 °FPassing clouds.12 mph32%29.89 "HgN/A
10:30 AM95 °FPassing clouds.9 mph32%29.92 "Hg6 mi
10:00 AM93 °FPassing clouds.3 mph36%29.92 "Hg6 mi
9:30 AM91 °FPassing clouds.2 mph41%29.95 "Hg6 mi
9:00 AM88 °FPassing clouds.2 mph49%29.95 "Hg6 mi
8:30 AM86 °FPassing clouds.5 mph49%29.95 "Hg6 mi
8:00 AM84 °FPassing clouds.5 mph51%29.95 "Hg6 mi
7:30 AM81 °FPassing clouds.3 mph62%29.95 "HgN/A
7:00 AM75 °FPassing clouds.2 mph69%29.92 "HgN/A
Weather by CustomWeather, © 2015

See weather overviewHow to use our weather pages